Weather History for KVPC - December, 2011

Change the Weather History Date:

Friday, December 2, 2011

  Actual Average Record
Temperature  
Mean Temperature 42 °F 46 °F  
Max Temperature 59 °F 57 °F 72 °F (2014)
Min Temperature 26 °F 34 °F 21 °F (2002)
Degree Days  
Heating Degree Days 22 19  
Month to date heating degree days 38  
Since 1 July heating degree days 647  
Moisture  
Dew Point 33 °F    
Average Humidity 79    
Maximum Humidity 96    
Minimum Humidity 39    
Precipitation  
Precipitation 0.00 in 0.18 in 0.56 in (1986)
Month to date precipitation 0.35  
Year to date precipitation 46.04  
Sea Level Pressure  
Sea Level Pressure 30.43 in    
Wind  
Wind Speed 0 mph (SSW)    
Max Wind Speed 4 mph    
Max Gust Speed -    
Visibility 8 miles    
Events      
T = Trace of Precipitation, MM = Missing Value Source: NWS Daily Summary

Daily Weather History Graph

Daily Weather History Graph

Search for Another Location

Airport or City:

Trip Planner

Search our weather history database for the weather conditions in past years. The results will help you decide how hot, cold, wet, or windy it might be!

Date:

Astronomy

Dec. 02, 2011 Rise Set
Actual Time 7:27 AM EST 5:29 PM EST
Civil Twilight 7:00 AM EST 5:57 PM EST
Nautical Twilight 6:29 AM EST 6:28 PM EST
Astronomical Twilight 5:58 AM EST 6:58 PM EST
Moon 12:52 PM EST (12/2) 12:15 AM EST (12/2)
Length of Visible Light 10h 57m
Length of Day
10h 02m
First Quarter, 53% of the Moon is Illuminated
Dec 2
First Quarter
Dec 10
Full
Dec 17
Last Quarter
Dec 24
New
Jan 1
First Quarter

Hourly Weather History & Observations

Time (EST) Temp. Dew Point Humidity Pressure Visibility Wind Dir Wind Speed Gust Speed Precip Events Conditions
12:53 AM 30.0 °F 28.9 °F 96% 30.38 in 5.0 mi Calm Calm - N/A   Clear
1:53 AM 28.9 °F 28.0 °F 96% 30.38 in 5.0 mi Calm Calm - N/A   Clear
2:53 AM 28.9 °F 28.0 °F 96% 30.38 in 7.0 mi Calm Calm - N/A   Clear
3:53 AM 28.9 °F 27.0 °F 92% 30.39 in 8.0 mi Calm Calm - N/A   Clear
4:53 AM 28.0 °F 27.0 °F 96% 30.40 in 9.0 mi Calm Calm - N/A   Clear
6:53 AM 26.1 °F 25.0 °F 96% 30.43 in 9.0 mi Calm Calm - N/A   Clear
7:53 AM 27.0 °F 26.1 °F 96% 30.45 in 8.0 mi Calm Calm - N/A   Clear
8:53 AM 33.1 °F 30.9 °F 92% 30.47 in 8.0 mi Calm Calm - N/A   Clear
9:53 AM 37.0 °F 34.0 °F 89% 30.49 in 10.0 mi Calm Calm - N/A   Clear
10:53 AM 45.0 °F 37.0 °F 74% 30.49 in 10.0 mi Calm Calm - N/A   Clear
11:53 AM 50.0 °F 37.9 °F 63% 30.47 in 10.0 mi Calm Calm - N/A   Clear
12:53 PM 55.0 °F 37.9 °F 53% 30.43 in 10.0 mi Calm Calm - N/A   Clear
1:53 PM 57.9 °F 36.0 °F 44% 30.40 in 10.0 mi Calm Calm - N/A   Clear
2:53 PM 59.0 °F 34.0 °F 39% 30.39 in 10.0 mi Calm Calm - N/A   Clear
3:53 PM 59.0 °F 34.0 °F 39% 30.38 in 9.0 mi SSW 3.5 mph - N/A   Clear
4:53 PM 55.9 °F 36.0 °F 47% 30.38 in 6.0 mi Calm Calm - N/A   Haze
5:53 PM 46.9 °F 37.0 °F 68% 30.41 in 10.0 mi Calm Calm - N/A   Clear
6:53 PM 42.1 °F 36.0 °F 79% 30.43 in 10.0 mi Calm Calm - N/A   Clear
7:53 PM 39.0 °F 35.1 °F 86% 30.43 in 7.0 mi Calm Calm - N/A   Clear
8:53 PM 37.9 °F 35.1 °F 89% 30.44 in 10.0 mi Calm Calm - N/A   Clear
9:53 PM 37.0 °F 34.0 °F 89% 30.45 in 8.0 mi Calm Calm - N/A   Clear
10:53 PM 34.0 °F 32.0 °F 92% 30.46 in 9.0 mi Calm Calm - N/A   Clear
11:53 PM 32.0 °F 30.9 °F 96% 30.46 in 7.0 mi Calm Calm - N/A   Clear